This is the latest recevied weather packets stored in our database for station/object 9W2KHE-10. If no packets are shown the sender has not sent any weather packets the latest 10 day(s).
| Time | Temp. | Humidity | Pressure | Rain* | Wind** | Luminosity | Snow |
|---|---|---|---|---|---|---|---|
| 1788615009 | 32.78° C | 54% | 1014.5 hPa | - | - | - | - |
| 1788614108 | 32.78° C | 54% | 1014.3 hPa | - | - | - | - |
| 1788613208 | 32.78° C | 54% | 1014.2 hPa | - | - | - | - |
| 1788612308 | 32.78° C | 54% | 1013.9 hPa | - | - | - | - |
| 1788611408 | 32.78° C | 54% | 1013.7 hPa | - | - | - | - |
| 1788610508 | 32.78° C | 55% | 1013.5 hPa | - | - | - | - |
| 1788609608 | 33.33° C | 54% | 1013.5 hPa | - | - | - | - |
| 1788608708 | 33.33° C | 55% | 1013.2 hPa | - | - | - | - |
| 1788607808 | 33.33° C | 54% | 1013 hPa | - | - | - | - |
| 1788606908 | 33.33° C | 53% | 1012.7 hPa | - | - | - | - |
| 1788606007 | 33.89° C | 51% | 1012.5 hPa | - | - | - | - |
| 1788605107 | 34.44° C | 49% | 1012.3 hPa | - | - | - | - |
| 1788604207 | 35.56° C | 46% | 1012.2 hPa | - | - | - | - |
| 1788603310 | 33.89° C | 51% | 1012.1 hPa | - | - | - | - |
| 1788602410 | 34.44° C | 50% | 1011.9 hPa | - | - | - | - |
| 1788601510 | 34.44° C | 50% | 1011.8 hPa | - | - | - | - |
| 1788600610 | 34.44° C | 50% | 1011.9 hPa | - | - | - | - |
| 1788599710 | 34.44° C | 50% | 1011.8 hPa | - | - | - | - |
| 1788598810 | 34.44° C | 49% | 1011.8 hPa | - | - | - | - |
| 1788597910 | 34.44° C | 50% | 1011.7 hPa | - | - | - | - |
| 1788597010 | 34.44° C | 50% | 1011.9 hPa | - | - | - | - |
| 1788596109 | 34.44° C | 51% | 1012 hPa | - | - | - | - |
| 1788595209 | 34.44° C | 51% | 1012.1 hPa | - | - | - | - |
| 1788594309 | 33.89° C | 52% | 1012.2 hPa | - | - | - | - |
| 1788593409 | 33.89° C | 53% | 1012.4 hPa | - | - | - | - |
* Rain since midnight (hover to see other rain measurements)
** Current wind speed in m/s (hover to see current wind gust speed)